VLG1HT LEBL-LPPR

Flight info

Callsign VLG1HT
Flight time 1h 33m
Altitude 33000
Route SENIA DCT DORMI DCT CRETA DCT NEXAS DCT DISVU DCT ADUXO DCT CJN N733 ZMR L155 ADORO DCT CANAR DCT INKIT
Aircraft A321/M-SDE3FGHIRWY/LB1

Departure

Time 2026-05-06 19:21
Airport Josep Tarradellas Barcelona-El Prat Airport (LEBL)

Arrival

Time 2026-05-06 20:54
Airport Francisco de Sá Carneiro Airport (LPPR)
Time Latitude Longitude Altitude Speed Heading
2026-05-06 18:47 41.29128 2.07305 21 ft 0 kts 155°
2026-05-06 19:08 41.29146 2.07294 22 ft 4 kts 155°
2026-05-06 19:08 41.29166 2.07282 21 ft 3 kts 155°
2026-05-06 19:08 41.29183 2.07264 20 ft 4 kts 92°
2026-05-06 19:08 41.29177 2.07234 20 ft 4 kts 65°
2026-05-06 19:09 41.29171 2.07217 21 ft 0 kts 65°
2026-05-06 19:12 41.29176 2.07232 20 ft 4 kts 65°
2026-05-06 19:13 41.29191 2.07275 19 ft 6 kts 65°
2026-05-06 19:13 41.29210 2.07329 20 ft 7 kts 65°
2026-05-06 19:13 41.29243 2.07378 18 ft 8 kts 15°
2026-05-06 19:13 41.29297 2.07413 17 ft 10 kts 58°
2026-05-06 19:14 41.29332 2.07506 16 ft 12 kts 67°
2026-05-06 19:14 41.29362 2.07619 16 ft 14 kts 66°
2026-05-06 19:14 41.29403 2.07738 15 ft 15 kts 65°
2026-05-06 19:14 41.29447 2.07867 15 ft 16 kts 65°
2026-05-06 19:15 41.29495 2.08005 15 ft 17 kts 65°
2026-05-06 19:15 41.29545 2.08152 15 ft 18 kts 65°
2026-05-06 19:15 41.29574 2.08311 16 ft 17 kts 68°
2026-05-06 19:15 41.29621 2.08459 17 ft 17 kts 71°
2026-05-06 19:16 41.29553 2.08558 17 ft 17 kts 154°
2026-05-06 19:16 41.29439 2.08625 15 ft 19 kts 156°
2026-05-06 19:16 41.29324 2.08696 17 ft 18 kts 156°
2026-05-06 19:16 41.29206 2.08766 17 ft 21 kts 155°
2026-05-06 19:17 41.29058 2.08855 15 ft 24 kts 156°
2026-05-06 19:17 41.28947 2.08941 16 ft 12 kts 112°
2026-05-06 19:17 41.28968 2.09040 18 ft 12 kts 65°
2026-05-06 19:17 41.29010 2.09163 17 ft 16 kts 65°
2026-05-06 19:18 41.29068 2.09331 18 ft 25 kts 65°
2026-05-06 19:18 41.29146 2.09556 17 ft 27 kts 66°
2026-05-06 19:18 41.29224 2.09787 17 ft 28 kts 66°
2026-05-06 19:18 41.29315 2.10011 18 ft 28 kts 64°
2026-05-06 19:19 41.29365 2.10201 16 ft 16 kts 92°
2026-05-06 19:19 41.29342 2.10259 14 ft 0 kts 143°
2026-05-06 19:19 41.29334 2.10266 14 ft 3 kts 150°
2026-05-06 19:19 41.29302 2.10286 13 ft 7 kts 155°
2026-05-06 19:20 41.29249 2.10317 14 ft 9 kts 159°
2026-05-06 19:20 41.29221 2.10311 15 ft 0 kts 234°
2026-05-06 19:20 41.29173 2.10191 16 ft 47 kts 244°
2026-05-06 19:20 41.28936 2.09491 19 ft 117 kts 245°
2026-05-06 19:21 41.28513 2.08273 47 ft 168 kts 245°
2026-05-06 19:21 41.28005 2.06907 737 ft 164 kts 233°
2026-05-06 19:21 41.27121 2.05994 1377 ft 169 kts 199°
2026-05-06 19:21 41.25873 2.05755 1612 ft 194 kts 184°
2026-05-06 19:22 41.24456 2.05722 1921 ft 211 kts 182°
2026-05-06 19:22 41.22971 2.05722 2440 ft 216 kts 182°
2026-05-06 19:22 41.21445 2.05720 3126 ft 219 kts 183°
2026-05-06 19:22 41.19912 2.05707 3840 ft 223 kts 182°
2026-05-06 19:23 41.18348 2.05674 4549 ft 227 kts 186°
2026-05-06 19:23 41.16810 2.05157 5098 ft 236 kts 208°
2026-05-06 19:23 41.15314 2.04156 5649 ft 245 kts 210°
2026-05-06 19:23 41.13789 2.03108 6365 ft 249 kts 210°
2026-05-06 19:24 41.12236 2.02038 7068 ft 252 kts 210°
2026-05-06 19:24 41.10671 2.00963 7788 ft 255 kts 210°
2026-05-06 19:24 41.09089 1.99869 8524 ft 257 kts 213°
2026-05-06 19:24 41.07707 1.98396 9245 ft 255 kts 232°
2026-05-06 19:25 41.06734 1.96389 9697 ft 268 kts 250°
2026-05-06 19:25 41.06206 1.93967 10117 ft 280 kts 257°
2026-05-06 19:25 41.05704 1.91405 10306 ft 303 kts 257°
2026-05-06 19:25 41.05301 1.88572 10469 ft 323 kts 269°
2026-05-06 19:26 41.05311 1.85557 10950 ft 331 kts 271°
2026-05-06 19:26 41.05337 1.82482 11603 ft 335 kts 271°
2026-05-06 19:26 41.05360 1.79386 12270 ft 338 kts 271°
2026-05-06 19:26 41.05381 1.76257 12934 ft 342 kts 271°
2026-05-06 19:27 41.05403 1.73094 13583 ft 345 kts 271°
2026-05-06 19:27 41.05426 1.69904 14202 ft 348 kts 270°
2026-05-06 19:27 41.05448 1.66681 14833 ft 350 kts 270°
2026-05-06 19:27 41.05468 1.63445 15496 ft 352 kts 270°
2026-05-06 19:28 41.05487 1.60202 16161 ft 353 kts 270°
2026-05-06 19:28 41.05504 1.56947 16819 ft 355 kts 270°
2026-05-06 19:28 41.05484 1.53669 17473 ft 356 kts 265°
2026-05-06 19:28 41.05072 1.50434 18085 ft 359 kts 255°
2026-05-06 19:29 41.04328 1.47261 18614 ft 362 kts 253°
2026-05-06 19:29 41.03573 1.44074 19170 ft 363 kts 253°
2026-05-06 19:29 41.02821 1.40868 19736 ft 365 kts 253°
2026-05-06 19:29 41.02069 1.37651 20319 ft 366 kts 253°
2026-05-06 19:30 41.01314 1.34422 20906 ft 367 kts 253°
2026-05-06 19:30 41.00555 1.31190 21483 ft 368 kts 253°
2026-05-06 19:30 40.99791 1.27950 22039 ft 370 kts 253°
2026-05-06 19:30 40.99023 1.24689 22585 ft 371 kts 253°
2026-05-06 19:31 40.98250 1.21423 23110 ft 373 kts 253°
2026-05-06 19:31 40.97470 1.18140 23604 ft 374 kts 253°
2026-05-06 19:31 40.95906 1.11546 24442 ft 378 kts 253°
2026-05-06 19:32 40.95117 1.08222 24846 ft 379 kts 253°
2026-05-06 19:32 40.94321 1.04890 25258 ft 381 kts 253°
2026-05-06 19:32 40.93521 1.01548 25674 ft 382 kts 253°
2026-05-06 19:32 40.92722 0.98199 26085 ft 383 kts 252°
2026-05-06 19:33 40.91930 0.94879 26492 ft 384 kts 252°
2026-05-06 19:33 40.91123 0.91511 26888 ft 385 kts 252°
2026-05-06 19:33 40.90311 0.88133 27283 ft 386 kts 252°
2026-05-06 19:33 40.89487 0.84715 27727 ft 386 kts 252°
2026-05-06 19:34 40.88673 0.81340 28151 ft 386 kts 252°
2026-05-06 19:34 40.87858 0.77953 28549 ft 387 kts 251°
2026-05-06 19:34 40.87157 0.74565 28910 ft 389 kts 258°
2026-05-06 19:34 40.86888 0.70941 29212 ft 394 kts 267°
2026-05-06 19:35 40.86927 0.67354 29549 ft 396 kts 268°
2026-05-06 19:35 40.86962 0.63710 29899 ft 398 kts 267°
2026-05-06 19:35 40.86989 0.60061 30219 ft 400 kts 267°
2026-05-06 19:35 40.87013 0.56371 30513 ft 401 kts 267°
2026-05-06 19:36 40.87034 0.52678 30879 ft 400 kts 267°
2026-05-06 19:36 40.87054 0.49021 31308 ft 398 kts 267°
2026-05-06 19:36 40.87074 0.45362 31722 ft 397 kts 267°
2026-05-06 19:36 40.87094 0.41719 32115 ft 396 kts 267°
2026-05-06 19:37 40.87115 0.38092 32497 ft 395 kts 267°
2026-05-06 19:37 40.87134 0.34467 32824 ft 395 kts 267°
2026-05-06 19:37 40.87150 0.30835 32945 ft 393 kts 267°
2026-05-06 19:37 40.87162 0.28446 32962 ft 389 kts 267°
2026-05-06 19:38 40.87195 0.20144 32961 ft 385 kts 267°
2026-05-06 19:38 40.87209 0.13070 32963 ft 385 kts 267°
2026-05-06 19:39 40.87221 0.06003 32964 ft 385 kts 267°
2026-05-06 19:39 40.87234 -0.01062 32979 ft 385 kts 267°
2026-05-06 19:40 40.87250 -0.08139 32965 ft 386 kts 267°
2026-05-06 19:40 40.87259 -0.15235 32964 ft 387 kts 267°
2026-05-06 19:41 40.87262 -0.22340 32959 ft 387 kts 267°
2026-05-06 19:41 40.87257 -0.29456 32959 ft 387 kts 267°
2026-05-06 19:42 40.87247 -0.36570 32968 ft 387 kts 267°
2026-05-06 19:42 40.87235 -0.43700 32972 ft 388 kts 266°
2026-05-06 19:43 40.87216 -0.50782 32977 ft 388 kts 266°
2026-05-06 19:43 40.87195 -0.57910 32979 ft 388 kts 266°
2026-05-06 19:44 40.87174 -0.65042 32982 ft 388 kts 266°
2026-05-06 19:44 40.87143 -0.72169 32981 ft 388 kts 266°
2026-05-06 19:45 40.86885 -0.79259 32975 ft 385 kts 257°
2026-05-06 19:45 40.85260 -0.85995 32954 ft 386 kts 249°
2026-05-06 19:46 40.83403 -0.92668 32953 ft 388 kts 249°
2026-05-06 19:46 40.81561 -0.99324 32963 ft 389 kts 249°
2026-05-06 19:47 40.79698 -1.06045 32972 ft 390 kts 249°
2026-05-06 19:47 40.77829 -1.12770 32974 ft 391 kts 249°
2026-05-06 19:48 40.75939 -1.19497 32959 ft 392 kts 249°
2026-05-06 19:48 40.74041 -1.26251 32956 ft 394 kts 249°
2026-05-06 19:49 40.72140 -1.33045 32954 ft 395 kts 249°
2026-05-06 19:49 40.70231 -1.39845 32961 ft 396 kts 249°
2026-05-06 19:50 40.68641 -1.45495 32967 ft 396 kts 249°
2026-05-06 19:50 40.66718 -1.52301 32967 ft 396 kts 249°
2026-05-06 19:51 40.64777 -1.59118 32962 ft 398 kts 249°
2026-05-06 19:51 40.62833 -1.65938 32960 ft 399 kts 249°
2026-05-06 19:52 40.60880 -1.72800 32962 ft 400 kts 249°
2026-05-06 19:52 40.59585 -1.77369 32970 ft 401 kts 249°
2026-05-06 19:55 40.57172 -1.85754 32944 ft 398 kts 249°
2026-05-06 19:55 40.55220 -1.92569 32955 ft 399 kts 249°
2026-05-06 19:56 40.53251 -1.99410 32937 ft 401 kts 249°
2026-05-06 19:56 40.51271 -2.06275 32940 ft 402 kts 249°
2026-05-06 19:57 40.49284 -2.13148 32945 ft 403 kts 249°
2026-05-06 19:57 40.47284 -2.20023 32943 ft 403 kts 249°
2026-05-06 19:58 40.45275 -2.26897 32930 ft 403 kts 249°
2026-05-06 19:58 40.43271 -2.33759 32951 ft 403 kts 249°
2026-05-06 19:59 40.41268 -2.40628 32947 ft 403 kts 249°
2026-05-06 19:59 40.39265 -2.47487 32942 ft 403 kts 252°
2026-05-06 20:00 40.38582 -2.54745 32940 ft 405 kts 273°
2026-05-06 20:00 40.40094 -2.61841 32942 ft 413 kts 293°
2026-05-06 20:01 40.42735 -2.68545 32943 ft 414 kts 294°
2026-05-06 20:01 40.45372 -2.75279 32952 ft 415 kts 294°
2026-05-06 20:02 40.48007 -2.82023 32943 ft 415 kts 294°
2026-05-06 20:02 40.50645 -2.88774 32940 ft 416 kts 294°
2026-05-06 20:03 40.53282 -2.95536 32940 ft 416 kts 294°
2026-05-06 20:03 40.55913 -3.02302 32941 ft 416 kts 294°
2026-05-06 20:04 40.58534 -3.09062 32942 ft 416 kts 294°
2026-05-06 20:04 40.60718 -3.14731 32934 ft 417 kts 294°
2026-05-06 20:05 40.63345 -3.21537 32932 ft 417 kts 294°
2026-05-06 20:05 40.65972 -3.28346 32931 ft 417 kts 294°
2026-05-06 20:06 40.68592 -3.35174 32933 ft 418 kts 294°
2026-05-06 20:06 40.71206 -3.42014 32940 ft 418 kts 294°
2026-05-06 20:07 40.73826 -3.48860 32952 ft 419 kts 294°
2026-05-06 20:07 40.76450 -3.55724 32957 ft 419 kts 294°
2026-05-06 20:08 40.79059 -3.62585 32965 ft 419 kts 294°
2026-05-06 20:08 40.81670 -3.69465 32969 ft 419 kts 294°
2026-05-06 20:09 40.84260 -3.76297 32969 ft 419 kts 294°
2026-05-06 20:09 40.86877 -3.83217 32977 ft 418 kts 294°
2026-05-06 20:10 40.89446 -3.90035 32972 ft 419 kts 294°
2026-05-06 20:10 40.92038 -3.96925 32970 ft 419 kts 294°
2026-05-06 20:11 40.94626 -4.03836 32975 ft 419 kts 294°
2026-05-06 20:11 40.97206 -4.10750 32975 ft 419 kts 294°
2026-05-06 20:12 40.99792 -4.17686 32969 ft 419 kts 294°
2026-05-06 20:12 41.02375 -4.24603 32972 ft 419 kts 294°
2026-05-06 20:13 41.04959 -4.31525 32967 ft 419 kts 293°
2026-05-06 20:13 41.07534 -4.38460 32974 ft 420 kts 294°
2026-05-06 20:14 41.10110 -4.45424 32971 ft 420 kts 294°
2026-05-06 20:14 41.12680 -4.52391 32972 ft 421 kts 293°
2026-05-06 20:15 41.15255 -4.59367 32963 ft 421 kts 293°
2026-05-06 20:15 41.17827 -4.66352 32965 ft 421 kts 293°
2026-05-06 20:16 41.20373 -4.73303 32961 ft 421 kts 293°
2026-05-06 20:16 41.22921 -4.80289 32954 ft 420 kts 293°
2026-05-06 20:17 41.25470 -4.87279 32965 ft 421 kts 293°
2026-05-06 20:17 41.28016 -4.94299 32956 ft 421 kts 293°
2026-05-06 20:18 41.30564 -5.01320 32961 ft 422 kts 293°
2026-05-06 20:18 41.33118 -5.08361 32957 ft 423 kts 293°
2026-05-06 20:19 41.35666 -5.15409 32954 ft 423 kts 293°
2026-05-06 20:19 41.38203 -5.22466 32957 ft 423 kts 292°
2026-05-06 20:20 41.40741 -5.29531 32956 ft 423 kts 292°
2026-05-06 20:20 41.43270 -5.36602 32961 ft 423 kts 292°
2026-05-06 20:21 41.45797 -5.43670 32960 ft 423 kts 292°
2026-05-06 20:21 41.48324 -5.50763 32954 ft 423 kts 292°
2026-05-06 20:22 41.50851 -5.57866 32949 ft 424 kts 292°
2026-05-06 20:22 41.52512 -5.65264 32942 ft 417 kts 274°
2026-05-06 20:23 41.52377 -5.72954 32944 ft 414 kts 263°
2026-05-06 20:23 41.51817 -5.80603 32940 ft 415 kts 263°
2026-05-06 20:24 41.51262 -5.88260 32936 ft 415 kts 263°
2026-05-06 20:24 41.50711 -5.95925 32932 ft 415 kts 263°
2026-05-06 20:25 41.50146 -6.03585 32936 ft 415 kts 262°
2026-05-06 20:25 41.49570 -6.11237 32944 ft 415 kts 262°
2026-05-06 20:26 41.48992 -6.18890 32938 ft 415 kts 262°
2026-05-06 20:26 41.48411 -6.26550 32932 ft 415 kts 262°
2026-05-06 20:27 41.47827 -6.34213 32930 ft 415 kts 262°
2026-05-06 20:27 41.47235 -6.41877 32782 ft 414 kts 262°
2026-05-06 20:28 41.46941 -6.45671 32506 ft 411 kts 262°
2026-05-06 20:28 41.46648 -6.49448 32254 ft 409 kts 262°
2026-05-06 20:28 41.46349 -6.53217 31995 ft 408 kts 262°
2026-05-06 20:28 41.46050 -6.56969 31746 ft 407 kts 262°
2026-05-06 20:29 41.45752 -6.60727 31481 ft 406 kts 262°
2026-05-06 20:29 41.45456 -6.64466 31226 ft 406 kts 262°
2026-05-06 20:29 41.45160 -6.68197 30974 ft 405 kts 262°
2026-05-06 20:29 41.44863 -6.71931 30722 ft 404 kts 262°
2026-05-06 20:30 41.44564 -6.75650 30475 ft 403 kts 262°
2026-05-06 20:30 41.43964 -6.83045 29902 ft 398 kts 262°
2026-05-06 20:30 41.43664 -6.86701 29416 ft 394 kts 262°
2026-05-06 20:31 41.43366 -6.90314 28967 ft 390 kts 262°
2026-05-06 20:31 41.43073 -6.93881 28533 ft 386 kts 262°
2026-05-06 20:31 41.42782 -6.97422 28097 ft 382 kts 262°
2026-05-06 20:31 41.42492 -7.00930 27682 ft 379 kts 262°
2026-05-06 20:32 41.42206 -7.04408 27264 ft 377 kts 262°
2026-05-06 20:32 41.41924 -7.07830 26864 ft 374 kts 262°
2026-05-06 20:32 41.41635 -7.11313 26456 ft 372 kts 262°
2026-05-06 20:32 41.41351 -7.14681 26066 ft 369 kts 262°
2026-05-06 20:33 41.41062 -7.18066 25680 ft 366 kts 262°
2026-05-06 20:33 41.40776 -7.21409 25295 ft 363 kts 262°
2026-05-06 20:33 41.40492 -7.24748 24919 ft 361 kts 262°
2026-05-06 20:33 41.40211 -7.28053 24536 ft 358 kts 262°
2026-05-06 20:34 41.39934 -7.31329 24172 ft 355 kts 262°
2026-05-06 20:34 41.39658 -7.34580 23790 ft 352 kts 262°
2026-05-06 20:34 41.39382 -7.37817 23383 ft 350 kts 262°
2026-05-06 20:34 41.39108 -7.41015 22965 ft 346 kts 262°
2026-05-06 20:35 41.38807 -7.44172 22562 ft 342 kts 257°
2026-05-06 20:35 41.38159 -7.47200 22175 ft 336 kts 246°
2026-05-06 20:35 41.37124 -7.49961 21771 ft 332 kts 237°
2026-05-06 20:35 41.35865 -7.52510 21371 ft 328 kts 233°
2026-05-06 20:36 41.34426 -7.54945 20989 ft 342 kts 230°
2026-05-06 20:36 41.32893 -7.57404 20596 ft 347 kts 229°
2026-05-06 20:36 41.31350 -7.59864 20230 ft 347 kts 229°
2026-05-06 20:36 41.29806 -7.62325 19861 ft 345 kts 229°
2026-05-06 20:37 41.28270 -7.64768 19499 ft 344 kts 229°
2026-05-06 20:37 41.26740 -7.67196 19124 ft 342 kts 229°
2026-05-06 20:37 41.25213 -7.69617 18763 ft 340 kts 229°
2026-05-06 20:37 41.23693 -7.72023 18407 ft 339 kts 229°
2026-05-06 20:38 41.22179 -7.74414 18025 ft 337 kts 229°
2026-05-06 20:38 41.20671 -7.76794 17618 ft 335 kts 229°
2026-05-06 20:38 41.19172 -7.79157 17217 ft 334 kts 229°
2026-05-06 20:38 41.17681 -7.81504 16821 ft 332 kts 229°
2026-05-06 20:39 41.16196 -7.83839 16431 ft 330 kts 229°
2026-05-06 20:39 41.14717 -7.86164 16045 ft 328 kts 229°
2026-05-06 20:39 41.13243 -7.88477 15665 ft 327 kts 229°
2026-05-06 20:39 41.11780 -7.90770 15288 ft 325 kts 229°
2026-05-06 20:40 41.10321 -7.93054 14922 ft 324 kts 229°
2026-05-06 20:40 41.08863 -7.95330 14554 ft 322 kts 229°
2026-05-06 20:40 41.07420 -7.97583 14187 ft 320 kts 229°
2026-05-06 20:40 41.05997 -7.99797 13831 ft 318 kts 229°
2026-05-06 20:41 41.04564 -8.02017 13438 ft 317 kts 229°
2026-05-06 20:41 41.03137 -8.04235 13037 ft 314 kts 229°
2026-05-06 20:41 41.01717 -8.06463 12641 ft 311 kts 229°
2026-05-06 20:41 41.00331 -8.08654 12247 ft 309 kts 229°
2026-05-06 20:42 40.98956 -8.10838 11839 ft 309 kts 229°
2026-05-06 20:42 40.97607 -8.12992 11467 ft 307 kts 229°
2026-05-06 20:42 40.96260 -8.15165 11097 ft 304 kts 229°
2026-05-06 20:42 40.94927 -8.17330 10730 ft 303 kts 229°
2026-05-06 20:43 40.93607 -8.19493 10364 ft 302 kts 232°
2026-05-06 20:43 40.92708 -8.21984 9992 ft 303 kts 256°
2026-05-06 20:43 40.92557 -8.24762 9594 ft 293 kts 268°
2026-05-06 20:43 40.92590 -8.27415 9200 ft 290 kts 269°
2026-05-06 20:44 40.92644 -8.30065 8817 ft 286 kts 269°
2026-05-06 20:44 40.92696 -8.32672 8422 ft 279 kts 269°
2026-05-06 20:44 40.92742 -8.35158 8044 ft 264 kts 269°
2026-05-06 20:44 40.92792 -8.37532 7741 ft 250 kts 270°
2026-05-06 20:45 40.92826 -8.39807 7440 ft 245 kts 269°
2026-05-06 20:45 40.92851 -8.42033 7135 ft 238 kts 269°
2026-05-06 20:45 40.92879 -8.44182 6831 ft 230 kts 269°
2026-05-06 20:45 40.92910 -8.46276 6541 ft 226 kts 269°
2026-05-06 20:46 40.92935 -8.48348 6241 ft 225 kts 269°
2026-05-06 20:46 40.92945 -8.50401 5991 ft 220 kts 269°
2026-05-06 20:46 40.92951 -8.52435 5957 ft 222 kts 269°
2026-05-06 20:46 40.92950 -8.54474 5944 ft 222 kts 269°
2026-05-06 20:47 40.92960 -8.56517 5939 ft 223 kts 274°
2026-05-06 20:47 40.93189 -8.57836 5835 ft 222 kts 294°
2026-05-06 20:47 40.94107 -8.59444 5707 ft 221 kts 324°
2026-05-06 20:47 40.95479 -8.60272 5507 ft 218 kts 348°
2026-05-06 20:48 40.97420 -8.60857 5217 ft 212 kts 347°
2026-05-06 20:48 40.98386 -8.61156 5067 ft 210 kts 347°
2026-05-06 20:48 40.99811 -8.61571 4807 ft 207 kts 349°
2026-05-06 20:48 41.01192 -8.61944 4541 ft 204 kts 349°
2026-05-06 20:49 41.02574 -8.62308 4279 ft 201 kts 349°
2026-05-06 20:49 41.03935 -8.62667 4010 ft 198 kts 349°
2026-05-06 20:49 41.05278 -8.63021 3756 ft 196 kts 349°
2026-05-06 20:49 41.06615 -8.63373 3502 ft 195 kts 349°
2026-05-06 20:50 41.07940 -8.63703 3308 ft 194 kts 350°
2026-05-06 20:50 41.09278 -8.64004 3090 ft 194 kts 351°
2026-05-06 20:50 41.10591 -8.64289 2943 ft 185 kts 351°
2026-05-06 20:50 41.11785 -8.64578 2732 ft 168 kts 349°
2026-05-06 20:51 41.12900 -8.64942 2366 ft 163 kts 346°
2026-05-06 20:51 41.13983 -8.65273 2075 ft 156 kts 349°
2026-05-06 20:51 41.15018 -8.65552 1902 ft 151 kts 349°
2026-05-06 20:51 41.16042 -8.65821 1666 ft 149 kts 349°
2026-05-06 20:52 41.17055 -8.66085 1451 ft 147 kts 349°
2026-05-06 20:52 41.18062 -8.66343 1287 ft 147 kts 349°
2026-05-06 20:52 41.19055 -8.66604 1118 ft 146 kts 349°
2026-05-06 20:52 41.20021 -8.66870 935 ft 138 kts 348°
2026-05-06 20:53 41.20957 -8.67115 750 ft 136 kts 348°
2026-05-06 20:53 41.21888 -8.67360 579 ft 136 kts 348°
2026-05-06 20:53 41.22830 -8.67603 383 ft 136 kts 348°
2026-05-06 20:53 41.23735 -8.67844 230 ft 131 kts 349°
2026-05-06 20:54 41.24477 -8.68040 208 ft 84 kts 348°
2026-05-06 20:54 41.24942 -8.68160 198 ft 59 kts 349°
2026-05-06 20:54 41.25187 -8.68144 183 ft 31 kts
2026-05-06 20:54 41.25285 -8.68048 180 ft 12 kts 95°
2026-05-06 20:55 41.25250 -8.68007 183 ft 1 kts 169°
2026-05-06 20:55 41.25228 -8.68003 194 ft 5 kts 172°
2026-05-06 20:56 41.25227 -8.68003 193 ft 0 kts 172°
2026-05-06 20:56 41.25225 -8.68003 192 ft 2 kts 172°
2026-05-06 20:56 41.25174 -8.67990 196 ft 12 kts 169°
2026-05-06 20:56 41.25070 -8.67963 191 ft 17 kts 169°
2026-05-06 20:57 41.24952 -8.67934 195 ft 17 kts 169°
2026-05-06 20:57 41.24848 -8.67887 207 ft 16 kts 155°
2026-05-06 20:57 41.24748 -8.67825 210 ft 17 kts 165°
2026-05-06 20:57 41.24632 -8.67794 213 ft 16 kts 169°
2026-05-06 20:58 41.24531 -8.67768 218 ft 14 kts 169°
2026-05-06 20:58 41.24446 -8.67746 223 ft 11 kts 169°
2026-05-06 20:58 41.24410 -8.67736 225 ft 8 kts 169°
2026-05-06 20:58 41.24338 -8.67717 229 ft 13 kts 166°
2026-05-06 20:59 41.24261 -8.67631 235 ft 17 kts 128°
2026-05-06 20:59 41.24148 -8.67563 238 ft 22 kts 171°
2026-05-06 20:59 41.24027 -8.67529 238 ft 12 kts 167°
2026-05-06 20:59 41.23938 -8.67505 238 ft 14 kts 169°
2026-05-06 21:00 41.23840 -8.67480 239 ft 15 kts 169°
2026-05-06 21:00 41.23744 -8.67432 239 ft 14 kts 131°
2026-05-06 21:00 41.23682 -8.67349 242 ft 12 kts 154°
2026-05-06 21:00 41.23595 -8.67336 241 ft 14 kts 196°
2026-05-06 21:01 41.23533 -8.67354 242 ft 7 kts 137°
2026-05-06 21:01 41.23515 -8.67310 244 ft 2 kts 114°
2026-05-06 21:01 41.23512 -8.67300 244 ft 1 kts 115°
2026-05-06 21:01 41.23509 -8.67292 245 ft 0 kts 115°
2026-05-06 21:02 41.23506 -8.67284 245 ft 1 kts 114°
2026-05-06 21:02 41.23506 -8.67283 245 ft 0 kts 114°
2026-05-06 21:02 41.23505 -8.67281 245 ft 0 kts 114°